Date,TemperatureHighF,TemperatureAvgF,TemperatureLowF,DewpointHighF,DewpointAvgF,DewpointLowF,HumidityHigh,HumidityAvg,HumidityLow,PressureMaxIn,PressureMinIn,WindSpeedMaxMPH,WindSpeedAvgMPH,GustSpeedMaxMPH,PrecipitationSumIn
2013-1-18,50,41,35,34,28,-100,77,63,52,29.78,29.70,16,-18,0,0.00
2013-1-19,54,39,22,32,27,9,83,63,41,30.21,29.74,19,6,0,0.00
2013-1-20,22,17,10,13,8,5,86,67,47,30.22,30.14,14,4,0,0.00
2013-1-21,18,12,9,12,0,-9,83,59,43,30.18,30.06,8,3,0,0.00
2013-1-22,25,15,11,11,7,0,89,70,48,30.07,29.91,10,2,0,0.00
2013-1-23,32,19,9,19,11,4,89,72,55,30.17,29.85,21,7,0,0.00
2013-1-24,19,10,1,5,-2,-7,74,58,46,30.21,29.83,14,6,0,0.00
2013-1-25,55,31,12,26,18,4,85,61,28,29.90,29.80,13,2,0,0.00
2013-1-26,57,35,19,30,22,16,91,64,29,29.92,29.67,13,5,0,0.00
2013-1-27,42,38,35,42,37,26,99,95,62,29.66,29.39,11,2,0,0.00
2013-1-28,42,38,34,42,38,34,99,99,99,29.60,29.33,11,2,0,0.00
2013-1-29,38,33,28,38,32,28,99,97,92,29.52,29.37,24,8,0,0.00
2013-1-30,28,20,4,28,16,2,99,85,64,29.77,29.50,14,4,0,0.00
2013-1-31,14,8,-6,12,0,-11,92,71,51,30.26,29.78,11,3,0,0.00
2013-2-1,30,16,0,24,10,-5,91,76,67,30.24,29.87,22,7,0,0.00
2013-2-2,43,33,23,36,28,22,98,82,64,30.03,29.86,14,3,0,0.00
2013-2-3,46,35,20,33,28,20,97,75,49,30.05,29.61,21,6,0,0.00
2013-2-4,38,28,23,31,24,21,97,86,76,29.86,29.60,21,6,0,0.00
2013-2-5,54,38,26,34,28,24,97,72,35,29.92,29.68,11,4,0,0.00
2013-2-6,57,41,26,46,35,24,99,82,57,29.91,29.67,16,4,0,0.00
2013-2-7,41,34,28,39,30,25,99,86,76,30.10,29.73,22,8,0,0.00
2013-2-8,38,30,25,31,26,23,95,88,73,30.17,29.95,16,5,0,0.00
2013-2-9,52,40,28,41,34,27,98,84,63,29.97,29.48,22,11,0,0.00
2013-2-10,43,36,30,42,33,25,99,89,73,29.75,29.11,29,11,0,0.00
2013-2-11,41,31,19,25,22,18,96,72,51,30.04,29.76,22,6,0,0.00
2013-2-12,50,32,16,27,21,15,98,68,32,30.04,29.78,16,3,0,0.00
2013-2-13,55,37,22,32,27,21,95,70,34,29.79,29.61,13,3,0,0.00
2013-2-14,46,35,19,32,26,13,97,72,39,30.20,29.70,22,6,0,0.00
2013-2-15,36,23,11,27,17,8,91,78,55,30.26,30.15,14,3,0,0.00
2013-2-16,39,25,10,27,19,8,95,78,53,30.21,29.86,16,4,0,0.00
2013-2-17,61,38,19,34,27,18,98,70,34,29.86,29.42,19,5,0,0.00
2013-2-18,40,32,20,33,24,14,94,74,49,29.98,29.41,18,6,0,0.00
2013-2-19,30,18,8,17,4,-4,81,56,26,30.25,29.98,16,5,0,0.00
2013-2-20,23,14,4,17,6,-1,90,71,54,30.26,30.05,18,9,0,0.00
2013-2-21,22,21,20,19,14,10,94,76,58,30.10,29.74,26,16,0,0.00
2013-2-22,21,10,5,15,6,2,90,86,75,29.90,29.87,3,1,0,0.00
2013-2-23,39,21,-2,26,15,-6,90,78,61,29.88,29.69,14,3,0,0.00
2013-2-24,46,31,20,29,25,19,93,81,48,29.95,29.74,11,4,0,0.00
2013-2-25,35,29,26,29,26,24,99,87,71,29.96,29.78,19,10,0,0.00
2013-2-26,32,27,23,27,25,22,99,93,82,29.81,29.68,16,8,0,0.00
2013-2-27,42,31,23,29,25,21,99,79,53,29.98,29.80,14,6,0,0.00
2013-2-28,33,28,25,26,24,21,89,83,74,30.13,29.98,18,6,0,0.00
2013-3-1,34,25,14,21,18,11,89,75,58,30.23,30.11,21,6,0,0.00
2013-3-2,42,27,9,26,19,8,94,74,46,30.23,29.93,11,2,0,0.00
2013-3-3,44,34,26,33,29,24,93,81,64,29.92,29.55,19,5,0,0.00
2013-3-4,40,33,27,34,29,20,99,84,68,29.92,29.49,22,5,0,0.00
2013-3-5,35,27,19,23,18,15,87,70,53,30.28,29.93,18,7,0,0.00
2013-3-6,41,27,16,23,19,14,92,74,46,30.31,30.09,11,4,0,0.00
2013-3-7,56,36,23,30,26,20,90,69,35,30.12,29.94,19,6,0,0.00
2013-3-8,60,42,26,42,34,24,99,75,49,30.04,29.77,16,6,0,0.00
2013-3-9,60,46,33,55,44,32,99,96,86,29.76,29.40,27,7,0,0.00
2013-3-10,33,26,20,32,25,20,99,98,94,29.85,29.60,34,10,0,0.00
2013-3-11,37,25,12,26,18,10,97,78,49,29.89,29.74,8,4,0,0.00
2013-3-12,40,29,16,26,22,13,97,75,56,30.21,29.88,14,4,0,0.00
2013-3-13,40,26,13,28,20,11,96,80,56,30.33,30.10,8,2,0,0.00
2013-3-14,66,43,29,45,34,23,99,72,43,30.09,29.94,10,2,0,0.00
2013-3-15,67,49,32,48,41,32,99,76,47,29.96,29.60,16,5,0,0.00
2013-3-16,42,31,25,40,27,22,99,86,76,30.06,29.73,22,10,0,0.00
2013-3-17,48,34,24,34,27,22,99,78,57,30.01,29.59,18,8,0,0.00
2013-3-18,42,34,20,36,23,14,99,66,35,29.93,29.56,18,7,0,0.00
2013-3-19,55,34,20,33,21,17,88,62,27,30.22,29.94,16,4,0,0.00
2013-3-20,41,27,14,17,11,4,83,56,31,30.30,29.95,16,4,0,0.00
2013-3-21,32,25,20,23,17,13,93,71,56,29.95,29.76,13,7,0,0.00
2013-3-22,33,29,26,28,23,18,96,78,63,29.90,29.82,10,5,0,0.00
2013-3-23,34,30,28,30,26,22,98,86,71,29.99,29.88,21,8,0,0.00
2013-3-24,32,26,23,27,20,16,98,79,57,29.98,29.93,27,7,0,0.00
2013-3-25,31,26,23,24,21,19,95,82,68,30.23,29.99,11,5,0,0.00
2013-3-26,45,31,14,23,19,11,89,64,37,30.25,30.09,11,2,0,0.00
2013-3-27,53,38,22,33,27,20,96,68,44,30.13,30.04,18,5,0,0.00
2013-3-28,60,41,22,35,30,22,99,69,36,30.13,30.02,11,3,0,0.00
2013-3-29,71,53,28,42,34,27,99,56,26,30.10,29.91,14,4,0,0.00
2013-3-30,69,56,49,59,47,37,99,75,37,29.98,29.81,21,4,0,0.00
2013-3-31,62,49,33,44,35,26,99,64,27,30.04,29.83,24,6,0,0.00
2013-4-1,43,31,22,32,20,14,99,66,33,30.23,30.05,21,7,0,0.00
2013-4-2,56,36,18,29,23,16,92,64,32,30.21,30.11,13,2,0,0.00
2013-4-3,58,40,24,31,26,21,91,61,33,30.25,30.10,16,4,0,0.00
2013-4-4,66,47,28,41,33,26,94,62,38,30.11,29.94,16,5,0,0.00
2013-4-5,72,52,35,41,35,28,86,55,28,30.05,29.59,24,8,0,0.00
2013-4-6,73,59,44,47,42,39,83,57,31,29.69,29.49,16,6,0,0.00
2013-4-7,73,57,40,52,44,39,99,67,34,29.72,29.52,11,3,0,0.00
2013-4-8,68,58,46,62,56,46,99,93,77,29.58,29.52,13,5,0,0.00
2013-4-9,62,41,32,62,40,32,99,99,99,29.87,29.44,35,16,0,0.00
2013-4-10,34,32,30,34,32,30,99,99,99,29.87,29.71,24,6,0,0.00
2013-4-11,36,31,28,35,30,27,99,94,88,29.70,29.54,14,5,0,0.00
2013-4-12,46,36,29,34,30,27,94,81,58,29.91,29.64,13,6,0,0.00
2013-4-13,59,44,24,43,36,24,99,75,51,29.92,29.49,19,6,0,0.00
2013-4-14,66,51,39,56,43,31,98,76,43,29.58,29.16,24,9,0,0.00
2013-4-15,49,39,32,33,29,24,84,68,51,29.97,29.58,13,3,0,0.00
2013-4-16,50,42,34,36,31,28,83,66,47,30.12,29.94,24,12,0,0.00
2013-4-17,45,40,35,40,38,35,99,93,69,30.04,29.63,22,13,0,0.00
2013-4-18,37,33,30,35,31,28,99,92,82,29.83,29.63,24,10,0,0.00
2013-4-19,50,37,26,31,26,22,89,67,38,29.99,29.79,18,6,0,0.00
2013-4-20,48,36,22,32,26,21,95,68,42,30.13,29.98,21,5,0,0.00
2013-4-21,69,54,41,51,41,32,99,65,40,30.01,29.85,34,8,0,0.00
2013-4-22,52,41,32,52,41,29,99,98,92,30.12,29.83,26,9,0,0.00
2013-4-23,40,32,24,29,25,20,92,76,55,30.17,30.05,24,10,0,0.00
2013-4-24,61,40,22,40,28,21,97,69,30,30.11,29.94,16,4,0,0.00
2013-4-25,71,51,28,40,34,27,97,59,27,30.14,29.89,21,6,0,0.00
2013-4-26,73,58,47,53,46,39,99,65,42,30.08,29.90,22,5,0,0.00
2013-4-27,72,55,39,56,48,39,99,82,45,30.09,29.83,10,3,0,0.00
2013-4-28,84,64,46,56,52,45,99,69,32,29.84,29.57,21,5,0,0.00
2013-4-29,84,67,54,59,52,45,96,63,33,29.69,29.38,14,4,0,0.00
2013-4-30,72,67,57,60,49,34,68,53,35,29.78,29.36,26,10,0,0.00
2013-5-1,57,39,32,44,37,32,99,94,47,30.32,29.79,37,18,0,0.00
2013-5-2,51,40,32,37,32,28,99,73,49,30.46,30.30,30,11,0,0.00
2013-5-3,53,42,30,34,30,26,88,63,39,30.30,29.93,24,8,0,0.00
2013-5-4,42,40,37,41,37,30,99,89,65,30.03,29.88,24,13,0,0.00
2013-5-5,55,47,41,49,44,39,98,90,80,30.08,29.99,11,4,0,0.00
2013-5-6,71,54,43,52,47,43,99,80,44,30.07,29.93,11,2,0,0.00
2013-5-7,75,58,41,62,53,41,99,86,47,29.98,29.84,8,1,0,0.00
2013-5-8,66,60,55,62,59,54,99,94,81,29.88,29.80,11,3,0,0.00
2013-5-9,69,59,54,61,57,54,99,95,76,29.92,29.76,14,5,0,0.00
2013-5-10,71,58,47,58,51,47,99,82,47,30.03,29.92,13,4,0,0.00
2013-5-11,64,54,36,48,35,24,99,54,25,30.19,29.96,26,6,0,0.00
2013-5-12,69,51,32,39,32,25,89,54,24,30.19,30.00,8,2,0,0.00
2013-5-13,85,66,43,57,49,39,96,58,27,30.01,29.76,19,5,0,0.00
2013-5-14,100,82,60,62,55,43,94,48,18,29.76,29.54,30,7,0,0.00
2013-5-15,83,73,62,53,44,38,63,36,25,29.81,29.67,24,9,0,0.00
2013-5-16,84,71,55,66,58,46,92,64,45,29.77,29.65,14,3,0,0.00
2013-5-17,88,75,58,66,62,58,99,68,40,29.79,29.69,13,2,0,0.00
2013-5-18,85,73,58,72,66,58,99,81,60,29.77,29.57,14,3,0,0.00
2013-5-19,79,66,57,71,64,57,99,93,78,29.64,29.36,13,2,0,0.00
2013-5-20,77,65,56,62,57,52,99,78,48,29.54,29.40,18,5,0,0.00
2013-5-21,64,58,51,58,52,49,98,82,65,29.65,29.51,11,3,0,0.00
2013-5-22,63,55,49,55,51,49,99,87,72,29.90,29.65,10,2,0,0.00
2013-5-23,71,58,50,56,50,45,99,78,40,30.13,29.91,19,6,0,0.00
2013-5-24,76,63,46,57,52,46,99,71,50,30.18,29.90,19,4,0,0.00
2013-5-25,83,70,59,74,65,55,99,86,70,30.01,29.82,11,2,0,0.00
2013-5-26,85,74,67,76,70,67,99,89,74,29.85,29.68,11,2,0,0.00
2013-5-27,78,69,60,71,65,59,99,90,68,29.79,29.47,21,5,0,0.00
2013-5-28,79,71,60,71,66,60,99,86,66,29.62,29.51,16,3,0,0.00
2013-5-29,79,69,62,75,68,62,99,97,88,29.57,29.38,26,3,0,0.00
2013-5-30,79,67,59,69,62,53,99,85,59,29.51,29.37,18,4,0,0.00
2013-5-31,82,69,56,57,53,46,96,60,31,29.64,29.50,14,3,0,0.00
2013-6-1,69,59,53,57,53,49,93,80,66,29.95,29.58,13,4,0,0.00
2013-6-2,73,59,44,53,48,44,99,70,38,30.04,29.89,10,2,0,0.00
2013-6-3,78,64,46,58,53,46,99,72,47,29.92,29.68,13,3,0,0.00
2013-6-4,74,66,59,67,63,57,99,88,75,29.89,29.72,13,2,0,0.00
2013-6-5,76,64,53,64,55,51,99,76,50,29.95,29.86,14,2,0,0.00
2013-6-6,79,63,52,61,54,51,99,75,48,29.92,29.86,10,1,0,0.00
2013-6-7,79,64,48,58,53,48,99,71,39,29.94,29.77,6,1,0,0.00
2013-6-8,72,63,57,71,60,53,99,93,82,29.77,29.53,14,2,0,0.00
2013-6-9,76,65,58,64,61,58,99,87,65,29.75,29.62,11,2,0,0.00
2013-6-10,86,71,52,67,61,52,99,76,48,29.79,29.65,16,1,0,0.00
2013-6-11,92,77,66,78,69,66,99,78,47,29.69,29.54,14,2,0,0.00
2013-6-12,89,77,60,78,68,57,99,74,52,29.95,29.52,11,3,0,0.00
2013-6-13,78,66,56,67,60,56,99,82,49,30.02,29.88,11,1,0,0.00
2013-6-14,93,75,64,79,69,61,98,83,48,29.92,29.62,16,4,0,0.00
2013-6-15,84,74,66,73,69,65,99,86,60,29.86,29.71,11,2,0,0.00
2013-6-16,87,74,62,73,67,62,99,82,50,29.89,29.82,11,3,0,0.00
2013-6-17,90,82,62,68,64,60,93,56,41,29.93,29.84,6,1,0,0.00
2013-6-18,84,74,59,65,62,59,99,70,44,29.97,29.86,13,3,0,0.00
2013-6-19,88,81,63,74,69,63,99,67,52,29.88,29.77,10,3,0,0.00
2013-6-20,91,84,68,79,75,67,99,75,63,29.79,29.68,13,5,0,0.00
2013-6-21,98,86,76,78,75,70,92,72,41,29.74,29.65,11,4,0,0.00
2013-6-22,92,80,66,79,71,62,99,75,54,29.91,29.65,24,6,0,0.00
2013-6-23,84,74,64,75,70,64,99,87,70,29.82,29.64,16,3,0,0.00
2013-6-24,88,76,68,80,73,68,99,93,72,29.82,29.60,11,2,0,0.00
2013-6-25,90,80,70,82,75,68,99,86,64,29.67,29.54,8,2,0,0.00
2013-6-26,97,82,69,77,71,65,99,74,38,29.78,29.57,6,1,0,0.00
2013-6-27,84,73,66,76,70,66,99,93,71,29.90,29.77,14,2,0,0.00
2013-6-28,87,77,66,72,66,59,99,71,42,29.91,29.82,14,2,0,0.00
2013-6-29,83,72,62,66,62,60,94,71,48,29.85,29.80,21,3,0,0.00
2013-6-30,78,68,57,64,60,55,99,77,51,30.02,29.85,14,2,0,0.00
2013-7-1,83,69,54,62,57,53,95,69,41,30.10,30.01,11,2,0,0.00
2013-7-2,86,66,55,66,55,-100,99,77,46,30.07,29.96,5,-30,0,0.00
2013-7-3,89,72,56,70,61,56,99,73,38,29.97,29.83,5,0,0,0.00
2013-7-4,87,74,60,69,62,57,91,68,42,29.88,29.75,11,2,0,0.00
2013-7-5,90,77,64,71,66,61,97,70,49,29.80,29.69,8,2,0,0.00
2013-7-6,90,77,68,75,67,62,84,73,58,29.74,29.66,11,3,0,0.00
2013-7-7,96,82,70,81,72,66,99,74,49,29.81,29.68,11,3,0,0.00
2013-7-8,95,81,76,79,75,70,99,82,59,29.86,29.77,10,2,0,0.00
2013-7-9,99,86,72,79,75,69,95,71,48,29.86,29.72,11,1,0,0.00
2013-7-10,86,76,65,74,70,65,99,83,60,30.01,29.87,14,3,0,0.00
2013-7-11,89,76,62,69,66,62,99,74,48,30.00,29.83,13,2,0,0.00
2013-7-12,95,79,66,79,70,63,98,75,57,29.88,29.77,11,2,0,0.00
2013-7-13,96,83,74,79,75,72,94,79,54,29.84,29.78,13,3,0,0.00
2013-7-14,88,76,65,73,68,64,99,79,47,30.04,29.83,13,3,0,0.00
2013-7-15,89,74,60,75,68,60,99,82,52,30.10,30.01,10,1,0,0.00
2013-7-16,92,79,66,74,70,65,99,78,52,30.16,30.07,11,2,0,0.00
2013-7-17,94,81,67,76,72,67,99,77,54,30.21,30.06,10,1,0,0.00
2013-7-18,94,82,70,76,73,70,99,75,52,30.07,29.82,18,4,0,0.00
2013-7-19,94,83,70,79,71,66,90,69,43,29.86,29.79,11,2,0,0.00
2013-7-20,89,76,63,72,66,58,99,75,40,29.89,29.76,13,3,0,0.00
2013-7-21,95,80,66,77,72,66,99,80,51,29.82,29.67,11,2,0,0.00
2013-7-22,99,82,66,82,73,66,99,77,44,29.75,29.65,11,2,0,0.00
2013-7-23,81,72,65,71,68,65,99,87,69,29.92,29.73,18,4,0,0.00
2013-7-24,88,74,57,72,67,57,99,81,51,29.98,29.88,5,0,0,0.00
2013-7-25,84,73,66,72,69,66,99,88,64,29.94,29.87,11,2,0,0.00
2013-7-26,80,70,58,69,62,55,99,78,49,30.02,29.87,14,3,0,0.00
2013-7-27,78,64,52,56,54,49,99,73,44,30.05,29.91,13,1,0,0.00
2013-7-28,82,65,47,60,54,47,99,73,43,29.97,29.90,8,1,0,0.00
2013-7-29,66,62,57,65,62,57,99,98,92,29.94,29.89,11,2,0,0.00
2013-7-30,80,70,64,73,68,64,99,94,78,30.02,29.91,6,1,0,0.00
2013-7-31,89,74,62,77,70,62,99,87,62,30.04,29.94,6,0,0,0.00
2013-8-1,90,72,61,77,68,61,99,89,54,29.99,29.77,14,2,0,0.00
2013-8-2,82,74,64,76,71,64,99,91,75,29.90,29.70,16,4,0,0.00
2013-8-3,78,68,62,70,65,61,99,89,67,30.08,29.91,13,5,0,0.00
2013-8-4,79,70,62,74,67,61,99,91,73,30.08,29.90,11,3,0,0.00
2013-8-5,90,76,69,81,74,69,99,94,71,29.92,29.72,6,1,0,0.00
2013-8-6,92,78,68,82,74,68,99,90,69,29.81,29.68,13,2,0,0.00
2013-8-7,84,74,66,72,68,61,99,84,48,29.88,29.73,13,2,0,0.00
2013-8-8,80,70,63,74,68,63,99,94,72,29.92,29.84,6,0,0,0.00
2013-8-9,83,72,60,76,68,60,99,88,64,30.04,29.91,11,2,0,0.00
2013-8-10,87,72,55,73,66,55,99,83,60,30.09,29.96,8,1,0,0.00
2013-8-11,89,75,63,76,70,62,99,86,62,30.01,29.87,10,2,0,0.00
2013-8-12,85,74,64,76,70,64,99,87,57,29.96,29.88,11,2,0,0.00
2013-8-13,77,68,58,68,64,58,99,86,62,30.07,29.97,13,2,0,0.00
2013-8-14,76,65,55,68,63,55,99,92,71,30.08,29.93,2,0,0,0.00
2013-8-15,68,65,62,68,65,62,99,99,99,29.99,29.90,13,3,0,0.00
2013-8-16,75,67,60,69,64,60,99,92,76,30.06,29.98,10,2,0,0.00
2013-8-17,82,70,56,69,64,56,99,84,58,30.08,29.99,10,1,0,0.00
2013-8-18,84,69,52,70,63,52,99,84,60,30.05,29.93,8,1,0,0.00
2013-8-19,89,76,64,76,71,63,99,86,63,29.96,29.80,19,2,0,0.00
2013-8-20,93,79,69,78,73,68,99,85,61,29.84,29.79,19,4,0,0.00
2013-8-21,95,80,69,80,74,69,99,84,59,29.88,29.81,13,3,0,0.00
2013-8-22,84,76,69,76,73,69,99,92,74,29.98,29.86,14,3,0,0.00
2013-8-23,92,80,69,80,73,68,99,83,55,29.96,29.85,10,2,0,0.00
2013-8-24,96,84,73,81,76,73,99,79,58,29.94,29.87,13,3,0,0.00
2013-8-25,98,85,74,79,76,73,99,77,51,29.99,29.92,13,4,0,0.00
2013-8-26,99,85,73,79,75,72,99,75,50,29.97,29.84,26,5,0,0.00
2013-8-27,99,85,75,76,72,69,87,68,42,29.85,29.79,16,6,0,0.00
2013-8-28,98,82,68,77,71,67,99,73,45,29.89,29.82,10,2,0,0.00
2013-8-29,101,82,65,82,73,65,99,80,42,29.90,29.79,13,1,0,0.00
2013-8-30,101,83,69,83,75,68,99,80,44,29.80,29.74,11,1,0,0.00
2013-8-31,98,80,70,80,74,70,99,84,44,29.79,29.67,6,0,0,0.00
2013-9-1,88,76,60,76,67,60,99,77,44,29.91,29.66,13,3,0,0.00
2013-9-2,84,69,56,68,62,56,99,81,48,30.00,29.90,10,1,0,0.00
2013-9-3,91,71,52,69,62,52,99,78,45,29.99,29.90,13,1,0,0.00
2013-9-4,90,72,58,72,66,58,99,82,36,30.04,29.91,10,1,0,0.00
2013-9-5,92,76,64,74,68,64,99,80,44,30.06,29.95,11,1,0,0.00
2013-9-6,99,81,65,75,71,65,99,75,44,29.97,29.78,16,2,0,0.00
2013-9-7,94,80,70,77,73,69,99,82,50,29.82,29.76,11,3,0,0.00
2013-9-8,97,80,69,79,74,68,99,86,50,29.81,29.68,11,2,0,0.00
2013-9-9,101,85,73,72,66,60,99,56,29,29.73,29.65,21,5,0,0.00
2013-9-10,100,81,69,75,68,62,99,68,34,29.95,29.73,16,4,0,0.00
2013-9-11,84,73,68,79,72,67,99,95,76,30.02,29.92,10,1,0,0.00
2013-9-12,80,69,54,68,61,54,99,79,45,30.11,30.00,18,5,0,0.00
2013-9-13,78,63,51,61,56,50,99,79,48,30.12,29.96,10,1,0,0.00
2013-9-14,78,65,51,65,58,51,99,80,55,29.96,29.74,16,2,0,0.00
2013-9-15,68,65,60,68,63,59,99,95,87,30.14,29.73,21,5,0,0.00
2013-9-16,66,60,55,62,58,55,99,94,80,30.22,30.08,19,6,0,0.00
2013-9-17,76,64,57,73,64,56,99,99,92,30.07,29.74,8,2,0,0.00
2013-9-18,93,78,67,77,72,67,99,84,60,29.75,29.55,14,4,0,0.00
2013-9-19,84,70,55,72,65,55,99,86,65,29.91,29.59,13,2,0,0.00
2013-9-20,75,59,46,54,51,46,99,78,41,29.99,29.86,11,2,0,0.00
2013-9-21,82,62,42,60,54,42,99,78,43,29.91,29.72,11,1,0,0.00
2013-9-22,84,68,54,62,57,54,99,72,40,29.76,29.64,21,4,0,0.00
2013-9-23,81,66,53,60,56,53,99,71,41,29.69,29.55,21,6,0,0.00
2013-9-24,71,63,53,63,59,52,99,89,76,29.80,29.54,11,3,0,0.00
2013-9-25,82,66,48,67,60,48,99,84,57,29.80,29.59,11,2,0,0.00
2013-9-26,92,75,62,66,64,62,99,73,42,29.66,29.56,21,6,0,0.00
2013-9-27,91,77,66,68,66,63,98,70,47,29.68,29.59,16,6,0,0.00
2013-9-28,75,62,43,67,54,42,99,78,44,29.95,29.55,13,3,0,0.00
2013-9-29,80,61,42,53,48,41,99,68,34,29.95,29.75,16,4,0,0.00
2013-9-30,85,66,53,59,55,51,96,71,38,29.76,29.58,14,5,0,0.00
2013-10-1,81,66,52,61,54,46,99,70,29,29.84,29.65,13,4,0,0.00
2013-10-2,89,70,53,71,63,50,99,80,50,29.84,29.69,13,2,0,0.00
2013-10-3,83,70,60,73,66,60,99,90,70,29.77,29.57,30,5,0,0.00
2013-10-4,86,67,47,76,63,40,99,88,58,29.78,29.48,22,10,0,0.00
2013-10-5,53,45,41,41,38,36,99,77,58,29.83,29.70,22,8,0,0.00
2013-10-6,62,48,41,51,43,37,99,87,49,29.91,29.69,13,4,0,0.00
2013-10-7,78,56,40,52,44,40,99,70,31,29.98,29.86,13,3,0,0.00
2013-10-8,80,64,45,54,49,45,99,60,38,29.87,29.74,18,6,0,0.00
2013-10-9,82,65,52,58,55,50,95,71,44,29.86,29.78,14,4,0,0.00
2013-10-10,84,68,55,64,60,54,99,78,52,29.85,29.63,22,5,0,0.00
2013-10-11,80,66,48,65,56,46,99,74,33,29.79,29.50,27,7,0,0.00
2013-10-12,71,52,38,46,41,35,99,72,28,30.17,29.78,11,1,0,0.00
2013-10-13,71,53,35,47,39,34,99,66,32,30.31,30.16,13,3,0,0.00
2013-10-14,59,54,45,59,50,40,99,89,57,30.16,29.58,18,6,0,0.00
2013-10-15,52,47,42,52,44,40,99,89,77,29.97,29.68,19,6,0,0.00
2013-10-16,60,45,35,46,41,34,99,86,47,29.98,29.84,10,2,0,0.00
2013-10-17,63,46,32,49,41,32,99,85,59,29.96,29.78,11,2,0,0.00
2013-10-18,53,40,33,40,34,31,99,82,42,30.03,29.89,6,1,0,0.00
2013-10-19,67,45,30,43,37,30,99,78,39,29.89,29.67,14,2,0,0.00
2013-10-20,70,52,40,48,43,38,98,74,42,29.92,29.59,8,2,0,0.00
2013-10-21,60,42,29,43,37,29,99,87,50,29.98,29.79,11,1,0,0.00
2013-10-22,57,44,28,48,41,28,99,88,67,30.01,29.76,10,2,0,0.00
2013-10-23,59,40,28,47,37,27,99,91,63,30.09,29.88,13,2,0,0.00
2013-10-24,54,39,26,38,32,25,99,79,40,30.29,30.09,8,1,0,0.00
2013-10-25,61,43,23,39,33,23,99,70,43,30.28,29.94,21,6,0,0.00
2013-10-26,57,43,26,40,34,25,99,74,42,30.13,29.91,14,3,0,0.00
2013-10-27,73,47,24,44,35,24,99,69,34,30.04,29.69,18,5,0,0.00
2013-10-29,50,48,48,50,45,-100,99,96,99,29.85,29.81,11,-22,0,0.00
2013-10-30,59,46,38,59,46,38,99,99,97,29.84,29.64,8,1,0,0.00
2013-10-31,62,43,32,51,40,31,99,89,49,29.64,29.38,11,1,0,0.00
2013-11-1,65,47,38,47,41,37,99,83,45,29.89,29.50,11,2,0,0.00
2013-11-2,64,43,31,41,35,31,99,79,32,30.09,29.89,8,1,0,0.00
2013-11-3,59,48,35,43,38,33,94,69,50,29.94,29.57,22,8,0,0.00
2013-11-4,59,46,31,47,40,30,99,81,52,30.01,29.62,18,3,0,0.00
2013-11-5,42,38,32,41,37,31,99,96,84,30.01,29.69,18,8,0,0.00
2013-11-6,46,35,26,40,33,26,99,94,72,30.15,29.94,11,2,0,0.00
2013-11-7,55,36,26,36,29,26,99,81,34,30.29,30.13,8,1,0,0.00
2013-11-8,63,51,28,43,39,27,99,67,43,30.12,29.60,26,6,0,0.00
2013-11-9,66,48,36,40,37,34,97,70,38,30.24,29.81,6,1,0,0.00
2013-11-10,56,42,25,46,35,25,99,76,44,30.28,30.02,10,2,0,0.00
2013-11-11,49,32,16,46,27,13,99,82,63,30.65,29.97,26,10,0,0.00
2013-11-12,38,22,7,16,12,6,98,68,31,30.77,30.42,11,2,0,0.00
2013-11-13,57,39,24,36,26,14,77,61,44,30.41,29.85,21,9,0,0.00
2013-11-14,58,41,28,42,33,28,99,76,54,29.84,29.75,13,2,0,0.00
2013-11-15,58,42,23,44,36,23,99,84,52,29.77,29.43,13,3,0,0.00
2013-11-16,66,49,32,53,42,30,99,81,40,29.43,29.19,16,5,0,0.00
2013-11-17,60,47,31,47,38,31,99,73,51,29.95,29.19,14,3,0,0.00
2013-11-18,59,38,26,35,28,25,99,72,29,30.12,29.95,11,2,0,0.00
2013-11-19,63,46,24,39,30,23,95,57,35,30.05,29.71,19,6,0,0.00
2013-11-20,62,47,33,42,36,28,99,67,46,29.80,29.58,13,4,0,0.00
2013-11-21,36,26,19,36,23,17,99,88,75,30.47,29.81,22,8,0,0.00
2013-11-22,38,21,11,17,12,7,92,69,32,30.60,30.46,11,2,0,0.00
2013-11-23,25,16,6,18,9,3,94,75,43,30.76,30.51,16,6,0,0.00
2013-11-24,36,22,6,18,12,4,96,68,45,30.61,30.07,18,7,0,0.00
2013-11-25,49,33,22,34,24,12,87,73,46,30.09,30.00,13,4,0,0.00
2013-11-26,35,25,11,26,16,6,99,73,41,30.31,30.09,18,3,0,0.00
2013-11-27,37,22,4,21,14,3,97,72,46,30.31,29.89,18,4,0,0.00
2013-11-28,38,25,13,25,20,12,99,80,50,30.35,29.94,18,4,0,0.00
2013-11-29,50,30,10,32,23,9,99,78,48,30.34,29.98,13,3,0,0.00
2013-11-30,67,40,24,36,29,23,99,70,27,30.01,29.93,10,2,0,0.00
2013-12-1,51,34,24,34,28,24,99,81,50,30.02,29.71,10,2,0,0.00
2013-12-2,68,41,24,39,32,24,99,77,33,29.71,29.38,13,1,0,0.00
2013-12-3,44,36,27,37,34,26,99,92,73,29.55,29.35,14,6,0,0.00
2013-12-4,32,20,14,31,17,8,99,90,77,29.96,29.52,13,6,0,0.00
2013-12-5,18,10,4,7,1,-4,82,66,47,30.30,29.94,10,4,0,0.00
2013-12-6,15,4,-4,-2,-5,-8,84,67,43,30.57,30.30,13,3,0,0.00
2013-12-7,10,3,-6,8,-3,-10,95,77,57,30.61,30.23,11,4,0,0.00
2013-12-8,17,11,1,14,10,0,98,95,86,30.22,29.87,14,4,0,0.00
2013-12-9,17,5,-10,7,-1,-13,96,77,51,30.21,29.96,18,4,0,0.00
2013-12-10,31,22,10,29,16,8,99,78,52,30.12,29.95,13,3,0,0.00
2013-12-11,28,10,-1,25,4,-5,91,75,51,30.53,30.13,16,4,0,0.00
2013-12-12,36,21,8,25,16,3,99,80,59,30.32,29.93,11,4,0,0.00
2013-12-13,34,21,8,26,19,7,99,93,71,29.96,29.73,19,5,0,0.00
2013-12-14,29,17,8,19,14,8,99,89,64,30.10,29.96,19,3,0,0.00
2013-12-15,32,21,11,27,20,11,99,95,79,30.00,29.81,10,1,0,0.00
2013-12-16,54,30,11,38,25,11,99,87,53,30.06,29.83,11,2,0,0.00
2013-12-17,46,30,18,32,24,18,99,80,36,30.19,29.96,8,2,0,0.00
2013-12-18,59,39,23,35,30,21,98,71,41,29.95,29.55,18,6,0,0.00
2013-12-19,36,27,14,31,24,13,99,88,77,29.77,29.59,19,11,0,0.00
2013-12-20,18,14,10,15,12,9,98,91,84,29.87,29.73,19,3,0,0.00
2013-12-21,25,20,13,20,17,13,99,90,75,29.75,29.62,24,5,0,0.00
2013-12-22,26,17,8,20,11,4,99,81,54,30.26,29.74,14,3,0,0.00
2013-12-23,18,7,-2,5,-1,-7,86,69,42,30.48,30.26,6,3,0,0.00
2013-12-24,27,16,0,27,13,-3,99,91,69,30.39,29.96,14,6,0,0.00
2013-12-25,47,26,10,32,21,10,99,84,48,30.18,30.08,11,2,0,0.00
2013-12-26,55,32,15,27,22,14,99,71,28,30.15,29.98,13,2,0,0.00
2013-12-27,65,38,16,32,24,15,99,64,24,30.15,29.94,19,3,0,0.00
2013-12-28,62,41,14,34,27,7,90,63,25,30.07,29.63,19,7,0,0.00
2013-12-29,18,7,-3,7,-6,-14,83,58,24,30.32,30.07,14,4,0,0.00
2013-12-30,42,20,-2,29,10,-6,95,65,45,30.20,29.94,19,5,0,0.00
2013-12-31,40,17,4,26,12,3,98,82,56,30.19,29.89,19,6,0,0.00
2014-1-1,10,8,2,7,4,0,92,87,83,30.28,30.00,19,9,0,0.00
2014-1-2,14,3,-5,7,0,-8,93,85,70,30.33,30.23,13,2,0,0.00